CZ-6A DEB, 54583

Orbit data source: Space-Track

CZ-6A DEB, 54583 is space debris in SSO originally from a launch on Fri, 11 Nov 2022 UTC launched from the Taiyaun Space Center, China (TSC). Debris objects in space refer to the collection of defunct objects orbiting the Earth. Examples of debris include non-operational satellites, rocket bodies, and fragments generated from explosions, collisions, or faulty payload assembly.

Loading next visibility...
Identifier
54583, 2022-151MK
Orbit
SSO
Country
Flag of CNCN / PRC
Related business
Manufacturer
SAST
Mission
Spacecraft
Bus & Motor
Unknown
Mass
Unknown
Launch date (UTC)
2022-11-11 (4 years ago)
Launch vehicle
Unknown
Launch site
Taiyaun Space Center, China (TSC)
Object type
Payload
Rocket body
Debris
Shape & HBR
Unknown shape, 0.1 m
Radar Cross Section
Medium (>0.1 m² and <1 m²)

Expand to show TLE details & history
Last TLE update: 21 hours ago

TLE from 21 hours ago
0 CZ-6A DEB
1 54583U 22151MK  26193.50891346  .00001012  00000-0  59621-3 0  9993
2 54583  98.8606 181.0716 0085658 315.0047  44.4204 14.08412419187097
Epoch: 2026-07-12T12:12Z
TLE epoch observation values (Epoch: 2026-07-12T12:12:50.122Z)
Latitude
-0.00005°
Longitude
67.456°
Altitude
823.646 km
Speed
7.464 km/s
True Right ascension
12h 04m 17s
True Declination
0° 00' 00"
Sunlit
Object was in daylight at epoch
Visualization orbit readout
Latitude
Unknown
Longitude
Unknown
Altitude
Unknown
Speed
Unknown
Apparent Right ascension
Unknown
Apparent Declination
Unknown
Sunlit
N/A
Visualization observer readout
Local Sidereal Time
21:38:26
Azimuth
Unknown
Elevation
Unknown
Doppler factor
Unknown
Orbital elements
Apogee altitude
924.008 km
Perigee altitude
799.973 km
Semi-major axis
7,240.128 km
Eccentricity
0.00857
Inclination
98.8606°
RAAN
181.0716°
Arg. of periapsis
315.0047°
True anomaly
45.11269°
Mean anomaly
44.4204°
Eccentric anomaly
44.76602°
Mean motion
3.52309 °/min
Orbital period
102.18 mins
BSTAR
0.00059621
Loading maneuver chart data...
Computing Atmospheric mass density...
Loading historical data...
Loading historical data...
Loading historical data...
Loading historical data...
Loading historical data...
Loading historical data...
Loading historical data...

Documentation

Showing up to 5 results
|